SES-11 (ECHOSTAR 105)

Last updated on Fri Jul 10 2026 00:03:05 GMT+0000 (Coordinated Universal Time)

1 42967U 17063A 26190.09372993 -.00000075 00000+0 00000+0 0 9996 2 42967 0.0143 14.9585 0002610 95.7986 105.0690 1.00270810 31940
UTC large
Height (km)
Speed (km/s)
/
Latitude / Longitude
Inclination (degrees)
Orbital Period (minutes)
Azimuth
Elevation
Range (km)
Doppler Factor

Next 0 passes for location: London (51.5072 / 0.1276)

No passes found over London.
SES-11 (ECHOSTAR 105)